Location: ???????
(55.3754°N, 39.3545°E)
Time: 14:44:19
(UTC+00:00)

Cosmos 1455 Rocket - Pass Details

Date: 14 April 2026
Orbit: 598 x 622 km, 82.5° (Epoch: 17 May)

Event Time Altitude Azimuth Distance (km) Brightness Sun altitude
Exits shadow 22:12:44 52° 284° (WNW) 775 3.4 -24.1°
Maximum altitude 22:12:48 52° 287° (WNW) 775 3.5 -24.1°
Drops below altitude 10° 22:17:09 10° 5° (N) 2,006 6.7 -24.0°
Sets 22:19:27 0° 10° (N) 2,918 7.9 -23.9°
